Miscellaneous Local Product
Issued by NWS Hastings, NE

Home | Current Version | Previous Version | Graphics & Text | Print | Product List | Glossary On
Versions: 1 2 3 4 5 6 7 8 9 10 11 12 13 14 15 16 17 18 19 20 21 22 23 24 25 26 27 28 29 30 31 32 33 34 35 36 37 38 39 40 41 42 43 44 45 46 47 48 49 50
000
AXUS43 KGID 242202
MISGRI

GID CWA HOURLY WEATHER ROUNDUP
NATIONAL WEATHER SERVICE HASTINGS NE
500 PM CDT FRI APR 24 2015

NOTE: "FAIR" INDICATES FEW OR NO CLOUDS BELOW 12,000 FEET WITH NO
SIGNIFICANT WEATHER AND/OR OBSTRUCTIONS TO VISIBILITY.

...SOUTH CENTRAL NEBRASKA...

CITY           SKY/WX    TMP DP  RH WIND       PRES   REMARKS
GRAND ISLAND   CLOUDY    63  55  75 SE10      29.58F
HASTINGS       CLOUDY    61  56  83 SE9       29.57F
KEARNEY        CLOUDY    66  55  68 SE12      29.55F
ORD            PTSUNNY   71  53  52 S10       29.52F
YORK           CLOUDY    63  55  77 S12       29.59S
AURORA         CLOUDY    63  56  80 S10       29.58F
LEXINGTON      PTSUNNY   68  54  61 S3        29.54F
HOLDREGE       CLOUDY    66  55  67 SE9       29.53F
HEBRON         CLOUDY    60  56  88 SE6       29.58F FOG

...NEBRASKA PANHANDLE...

CITY           SKY/WX    TMP DP  RH WIND       PRES   REMARKS
CHADRON        PTSUNNY   63  44  50 N20G26    29.55R
ALLIANCE       PTSUNNY   69  40  34 VRB7      29.53F
SCOTTSBLUFF    PTSUNNY   71  35  26 N8        29.54F
SIDNEY         CLOUDY    63  32  31 W12G22    29.58F

...WESTERN AND NORTH CENTRAL NEBRASKA...

CITY           SKY/WX    TMP DP  RH WIND       PRES   REMARKS
VALENTINE      PTSUNNY   76  36  23 NE8G18    29.48F
AINSWORTH      PTSUNNY   74  37  26 W8        29.49F
ONEILL         CLOUDY    71  53  53 S9        29.51F
BROKEN BOW     MOSUNNY   72  52  49 SE9       29.52F
IMPERIAL       CLOUDY    70  42  36 E9        29.53F
NORTH PLATTE   NOT AVBL
MCCOOK         PTSUNNY   69  53  56 E10       29.52F

...EASTERN NEBRASKA...

CITY           SKY/WX    TMP DP  RH WIND       PRES   REMARKS
NORFOLK        MOSUNNY   72  55  55 S14       29.54F
SO SIOUX CITY  SUNNY     75  51  43 SE16      29.56S
TEKAMAH        LGT RAIN  71  55  56 S16       29.58F
COLUMBUS       CLOUDY    66  54  63 S13       29.59F
ALBION         MOSUNNY   71  53  52 S12G17    29.54F
OMAHA EPPLEY   CLOUDY    68  52  56 S16       29.59F
OFFUTT AFB     CLOUDY    66  53  62 SE13      29.60F
MILLARD        CLOUDY    67  54  63 SE12      29.59F
LINCOLN        CLOUDY    63  53  70 S12       29.61R
NEBRASKA CITY  CLOUDY    61  47  61 S14       29.61F
BEATRICE       CLOUDY    60  54  78 S12       29.61R
FALLS CITY     CLOUDY    60  52  74 S15       29.63F

...NORTHERN KANSAS...

CITY           SKY/WX    TMP DP  RH WIND       PRES   REMARKS
GOODLAND       CLOUDY    63  34  33 S8G17     29.56F
HILL CITY      MOSUNNY   73  56  54 NE3       29.47F
NORTON         PTCLDY    70  50  49 E5        29.49F
BELOIT         SUNNY     66  57  72 E12G17    29.51F
HAYS           PTSUNNY   75  48  38 S15G22    29.42F
RUSSELL        PTSUNNY   75  60  59 E22       29.42F
CONCORDIA      PTSUNNY   68  57  68 SE12      29.54F
SALINA         CLOUDY    72  60  66 E15       29.51F
TOPEKA         CLOUDY    62  55  77 SE10      29.63F



USA.gov is the U.S. government's official web portal to all federal, state and local government web resources and services.